STARLINK-30939, 58393

Orbit data source: Space-Track

STARLINK-30939, 58393 is a payload satellite owned by SpaceX/Seattle (US) in LEO that was launched on Mon, 20 Nov 2023 UTC via an FALCON 9 launch vehicle from the Air Force Western Test Range (AFWTR). Payload-class satellites include a variety of spacecraft equipped with specific instruments for various scientific and technological missions. These include communications satellites like Starlink; space stations such as the ISS; scientific satellites like the Hubble; Earth observation satellites from companies like Planet Labs, Umbra, and HawkEye 360; GPS; miniature CubeSats for education and research; and military/defense satellites.

Loading next visibility...
Identifier
58393, 2023-178V
Orbit
LEO
Country
Flag of USUS
Related business
Manufacturer
SpaceX/Seattle
Mission
Operational Commercial Communications
Bus & Motor
STARLINK V2M, Unknown motor
Mass
730 kg wet, ~700 kg dry
Launch date (UTC)
2023-11-20 (3 years ago)
Launch vehicle
FALCON 9
Launch site
Air Force Western Test Range (AFWTR)
Object type
Payload
Rocket body
Debris
Shape & HBR
Box + 2 Pan, 17.7 m
Radar Cross Section
33.884 m², Large (>1 m²)

Expand to show TLE details & history
Last TLE update: 2 days ago

TLE from 2 days ago
0 STARLINK-30939
1 58393U 23178V   26171.36096199  .00000240  00000-0  18245-4 0  9999
2 58393  53.1600 242.5614 0001257  89.8454 270.2692 15.34391869145504
Epoch: 2026-06-20T08:39Z
TLE epoch observation values (Epoch: 2026-06-20T08:39:47.115Z)
Latitude
-0.00009°
Longitude
-155.96168°
Altitude
463.625 km
Speed
7.636 km/s
True Right ascension
16h 10m 14s
True Declination
0° 00' 00"
Sunlit
Object was in full shadow at epoch
Visualization orbit readout
Latitude
Unknown
Longitude
Unknown
Altitude
Unknown
Speed
Unknown
Apparent Right ascension
Unknown
Apparent Declination
Unknown
Sunlit
N/A
Visualization observer readout
Local Sidereal Time
21:30:46
Azimuth
Unknown
Elevation
Unknown
Doppler factor
Unknown
Orbital elements
Apogee altitude
463.844 km
Perigee altitude
462.124 km
Semi-major axis
6,841.121 km
Eccentricity
0.00013
Inclination
53.16°
RAAN
242.5614°
Arg. of periapsis
89.8454°
True anomaly
270.2548°
Mean anomaly
270.2692°
Eccentric anomaly
270.262°
Mean motion
3.83577 °/min
Orbital period
93.85 mins
BSTAR
0.000018245
Loading maneuver chart data...
Computing Atmospheric mass density...
Loading historical data...
Loading historical data...
Loading historical data...
Loading historical data...
Loading historical data...
Loading historical data...
Loading historical data...

Documentation

Showing up to 5 results
|